Retour au catalogue

CZ-3C DEB

LostGTO
NORAD 40864·DEBRIS·🇨🇳 China

Lancé Feb 24, 2012 depuis Xichang Satellite Launch Center

Loading…

TLE

PériméSource: Space-Track

Époque: Jul 6, 2026, 17:40 UTC

1 40864U 12008AE  26187.73639387 -.00000156  00000-0 -13955-2 0  9992
2 40864  20.1214  26.4994 7088779 214.4874  67.2044  2.25658725   683

Suivez CZ-3C DEB en temps réel avec AllMySat

Download on the App Store